TimeCST,TemperatureF,Dew PointF,Humidity,Sea Level PressureIn,VisibilityMPH,Wind Direction,Wind SpeedMPH,Gust SpeedMPH,PrecipitationIn,Events,Conditions,WindDirDegrees,DateUTC
12:53 AM,66.0,63.0,90,29.75,10.0,SSE,8.1,-,N/A,,Overcast,160,2013-12-04 06:53:00
1:53 AM,66.0,63.0,90,29.76,8.0,SSE,5.8,-,N/A,,Mostly Cloudy,160,2013-12-04 07:53:00
2:24 AM,66.2,62.6,88,29.78,8.0,SSE,6.9,-,N/A,,Overcast,160,2013-12-04 08:24:00
2:53 AM,66.9,63.0,87,29.76,8.0,South,5.8,-,N/A,,Overcast,170,2013-12-04 08:53:00
3:30 AM,66.2,64.4,94,29.79,7.0,SSE,5.8,-,N/A,,Overcast,160,2013-12-04 09:30:00
3:42 AM,66.2,64.4,94,29.79,7.0,South,5.8,-,N/A,,Overcast,170,2013-12-04 09:42:00
3:53 AM,68.0,64.0,87,29.78,7.0,South,5.8,-,N/A,,Overcast,170,2013-12-04 09:53:00
4:53 AM,68.0,64.0,87,29.77,7.0,South,8.1,-,N/A,,Overcast,180,2013-12-04 10:53:00
5:22 AM,68.0,64.4,88,29.79,6.0,South,6.9,-,N/A,,Overcast,180,2013-12-04 11:22:00
5:53 AM,66.9,64.0,90,29.79,6.0,South,6.9,-,N/A,,Mostly Cloudy,170,2013-12-04 11:53:00
6:53 AM,68.0,64.0,87,29.81,5.0,SSE,6.9,-,N/A,,Overcast,150,2013-12-04 12:53:00
7:53 AM,68.0,64.9,90,29.84,3.0,SSE,8.1,-,N/A,,Overcast,150,2013-12-04 13:53:00
8:53 AM,70.0,66.0,87,29.86,4.0,South,6.9,-,N/A,,Mostly Cloudy,170,2013-12-04 14:53:00
9:53 AM,73.0,64.9,76,29.87,5.0,South,10.4,-,N/A,,Haze,190,2013-12-04 15:53:00
10:53 AM,77.0,64.0,64,29.85,7.0,South,15.0,24.2,N/A,,Mostly Cloudy,190,2013-12-04 16:53:00
11:53 AM,78.1,64.0,62,29.82,9.0,South,12.7,23.0,N/A,,Mostly Cloudy,190,2013-12-04 17:53:00
12:53 PM,79.0,63.0,58,29.80,10.0,SSW,13.8,24.2,N/A,,Mostly Cloudy,200,2013-12-04 18:53:00
1:53 PM,79.0,63.0,58,29.78,10.0,SSW,13.8,23.0,N/A,,Mostly Cloudy,200,2013-12-04 19:53:00
2:53 PM,79.0,63.0,58,29.77,10.0,South,11.5,24.2,N/A,,Mostly Cloudy,190,2013-12-04 20:53:00
3:53 PM,79.0,63.0,58,29.78,10.0,South,13.8,-,N/A,,Partly Cloudy,190,2013-12-04 21:53:00
4:53 PM,75.0,63.0,66,29.79,10.0,South,9.2,-,N/A,,Clear,180,2013-12-04 22:53:00
5:53 PM,72.0,63.0,73,29.81,10.0,South,6.9,-,N/A,,Clear,170,2013-12-04 23:53:00
6:53 PM,70.0,64.0,81,29.82,10.0,SSE,6.9,-,N/A,,Clear,150,2013-12-05 00:53:00
7:53 PM,70.0,64.9,84,29.84,10.0,SSE,6.9,-,N/A,,Clear,160,2013-12-05 01:53:00
8:53 PM,70.0,64.9,84,29.86,10.0,South,8.1,-,N/A,,Clear,170,2013-12-05 02:53:00
9:53 PM,69.1,64.9,87,29.88,10.0,SSE,6.9,-,N/A,,Clear,160,2013-12-05 03:53:00
10:53 PM,69.1,66.0,90,29.89,10.0,South,8.1,-,N/A,,Clear,170,2013-12-05 04:53:00
11:15 PM,69.8,66.2,88,29.91,10.0,South,8.1,-,N/A,,Mostly Cloudy,170,2013-12-05 05:15:00
11:53 PM,69.1,66.0,90,29.89,10.0,SSE,8.1,-,N/A,,Overcast,160,2013-12-05 05:53:00